| time (UTC) | temp F | wind direction | speed knots | gust knots | rain 1hr in | rain 24hr in | rain mn in | humidity % | barometer mb |
| 20260503203344 | 59 | 259 | 13.9 | 17.4 | 0.00 | 0.06 | 0.06 | 62 | 1015.0 |
| 20260503202841 | 59 | 224 | 9.6 | 11.3 | 0.00 | 0.06 | 0.06 | 63 | 1015.1 |
| 20260503202339 | 58 | 233 | 8.7 | 13.0 | 0.00 | 0.06 | 0.06 | 65 | 1015.0 |
| 20260503201837 | 56 | 224 | 6.1 | 12.2 | 0.00 | 0.06 | 0.06 | 71 | 1015.6 |
| 20260503201334 | 55 | 188 | 0.9 | 1.7 | 0.00 | 0.06 | 0.06 | 81 | 1015.6 |
| 20260503200832 | 55 | 164 | 0.9 | 1.7 | 0.00 | 0.06 | 0.06 | 80 | 1015.8 |
| 20260503200327 | 55 | 201 | 0.9 | 1.7 | 0.00 | 0.06 | 0.06 | 82 | 1015.8 |
| 20260503195825 | 54 | 204 | 0.0 | 0.9 | 0.00 | 0.06 | 0.06 | 82 | 1016.0 |
| 20260503195321 | 53 | 220 | 0.0 | 2.6 | 0.00 | 0.06 | 0.06 | 80 | 1016.0 |
| 20260503194819 | 52 | 207 | 2.6 | 6.1 | 0.00 | 0.06 | 0.06 | 79 | 1016.4 |
| 20260503194314 | 52 | 218 | 2.6 | 4.3 | 0.00 | 0.06 | 0.06 | 80 | 1016.7 |
| 20260503193810 | 51 | 227 | 0.0 | 0.9 | 0.00 | 0.06 | 0.06 | 83 | 1016.8 |
| 20260503193307 | 50 | 214 | 1.7 | 1.7 | 0.00 | 0.06 | 0.06 | 84 | 1017.0 |
| 20260503192803 | 49 | 213 | 3.5 | 5.2 | 0.00 | 0.06 | 0.06 | 87 | 1017.2 |
| 20260503192258 | 49 | 220 | 3.5 | 4.3 | 0.07 | 0.06 | 0.06 | 90 | 1017.5 |
| 20260503191754 | 50 | 162 | 1.7 | 1.7 | 0.07 | 0.06 | 0.06 | 90 | 1017.5 |
| 20260503191252 | 49 | 180 | 0.9 | 1.7 | 0.00 | 0.05 | 0.05 | 90 | 1017.2 |
| 20260503190748 | 49 | 190 | 2.6 | 2.6 | 0.00 | 0.05 | 0.05 | 91 | 1017.3 |
| 20260503190245 | 48 | 105 | 0.9 | 1.7 | 0.00 | 0.05 | 0.05 | 90 | 1017.5 |
| 20260503185742 | 48 | 104 | 1.7 | 1.7 | 0.00 | 0.05 | 0.05 | 90 | 1017.7 |
| 20260503185238 | 47 | 100 | 0.9 | 1.7 | 0.00 | 0.05 | 0.05 | 90 | 1017.6 |
| 20260503184733 | 47 | 65 | 1.7 | 1.7 | 0.09 | 0.05 | 0.05 | 89 | 1017.9 |
| 20260503184230 | 48 | 336 | 0.0 | 0.9 | 0.09 | 0.05 | 0.05 | 85 | 1018.3 |
| 20260503183726 | 49 | 222 | 0.0 | 0.9 | 0.07 | 0.04 | 0.04 | 82 | 1018.3 |
| 20260503183223 | 48 | 240 | 5.2 | 11.3 | 0.21 | 0.04 | 0.04 | 80 | 1018.6 |
| 20260503182721 | 50 | 253 | 2.6 | 4.3 | 0.07 | 0.01 | 0.01 | 81 | 1018.7 |
| 20260503182220 | 49 | 254 | 2.6 | 2.6 | 0.00 | 0.00 | 0.00 | 78 | 1018.4 |
| 20260503181716 | 49 | 251 | 5.2 | 7.0 | 0.00 | 0.00 | 0.00 | 80 | 1018.5 |
| 20260503181213 | 49 | 248 | 4.3 | 7.8 | 0.00 | 0.00 | 0.00 | 81 | 1018.6 |
| 20260503180709 | 50 | 258 | 10.4 | 12.2 | 0.00 | 0.00 | 0.00 | 81 | 1018.8 |
| 20260503180208 | 52 | 262 | 14.8 | 18.2 | 0.00 | 0.00 | 0.00 | 72 | 1018.6 |
| 20260503175704 | 54 | 252 | 13.0 | 20.9 | 0.00 | 0.00 | 0.00 | 63 | 1018.3 |
| 20260503175202 | 55 | 262 | 16.5 | 21.7 | 0.00 | 0.00 | 0.00 | 58 | 1018.4 |
| 20260503174657 | 55 | 239 | 13.9 | 19.1 | 0.00 | 0.00 | 0.00 | 58 | 1018.2 |
| 20260503174155 | 56 | 247 | 9.6 | 15.6 | 0.00 | 0.00 | 0.00 | 62 | 1018.2 |
| 20260503173651 | 56 | 267 | 10.4 | 14.8 | 0.00 | 0.00 | 0.00 | 60 | 1018.5 |
| 20260503173147 | 57 | 252 | 10.4 | 14.8 | 0.00 | 0.00 | 0.00 | 58 | 1018.6 |
| 20260503172644 | 57 | 251 | 11.3 | 13.9 | 0.00 | 0.00 | 0.00 | 59 | 1018.6 |
| 20260503172141 | 57 | 240 | 13.9 | 17.4 | 0.00 | 0.00 | 0.00 | 58 | 1018.4 |
| 20260503171637 | 57 | 245 | 14.8 | 15.6 | 0.00 | 0.00 | 0.00 | 57 | 1018.4 |
| 20260503171135 | 58 | 251 | 11.3 | 14.8 | 0.00 | 0.00 | 0.00 | 56 | 1018.6 |
| 20260503170632 | 57 | 269 | 11.3 | 15.6 | 0.00 | 0.00 | 0.00 | 58 | 1018.8 |
| 20260503170129 | 59 | 263 | 19.1 | 20.0 | 0.00 | 0.00 | 0.00 | 57 | 1018.8 |
| 20260503150520 | 55 | 257 | 14.8 | 17.4 | 0.00 | 0.00 | 0.00 | 58 | 1020.1 |
| 20260503131413 | 48 | 237 | 8.7 | 13.0 | 0.00 | 0.00 | 0.00 | 64 | 1020.3 |
| 20260503130910 | 48 | 259 | 9.6 | 13.9 | 0.00 | 0.00 | 0.00 | 64 | 1020.5 |
| 20260503130408 | 48 | 265 | 10.4 | 15.6 | 0.00 | 0.00 | 0.00 | 62 | 1020.3 |
| 20260503110811 | 40 | 249 | 4.3 | 7.0 | 0.00 | 0.00 | 0.00 | 76 | 1020.0 |
| 20260503110308 | 40 | 237 | 4.3 | 7.8 | 0.00 | 0.00 | 0.00 | 75 | 1019.9 |
| 20260503100235 | 39 | 239 | 7.8 | 7.8 | 0.00 | 0.00 | 0.00 | 77 | 1019.6 |
| 20260503090154 | 40 | 255 | 3.5 | 4.3 | 0.00 | 0.00 | 0.00 | 76 | 1019.9 |
| 20260503081624 | 40 | 236 | 4.3 | 4.3 | 0.00 | 0.00 | 0.00 | 75 | 1020.0 |
| 20260503081121 | 41 | 259 | 2.6 | 5.2 | 0.00 | 0.00 | 0.00 | 75 | 1020.2 |
| 20260503080617 | 41 | 235 | 4.3 | 5.2 | 0.00 | 0.00 | 0.00 | 74 | 1020.0 |
| 20260503080114 | 40 | 240 | 4.3 | 6.1 | 0.00 | 0.00 | 0.00 | 74 | 1020.1 |
| 20260503071506 | 41 | 243 | 4.3 | 5.2 | 0.00 | 0.00 | 0.00 | 73 | 1020.1 |
| 20260503071002 | 41 | 243 | 4.3 | 5.2 | 0.00 | 0.00 | 0.00 | 73 | 1020.1 |
| 20260503070459 | 41 | 265 | 3.5 | 4.3 | 0.00 | 0.00 | 0.00 | 73 | 1020.3 |
| 20260503054923 | 41 | 238 | 4.3 | 4.3 | 0.00 | 0.00 | 0.00 | 71 | 1020.9 |
| 20260503054419 | 41 | 229 | 2.6 | 2.6 | 0.00 | 0.00 | 0.00 | 71 | 1020.8 |
| 20260503053917 | 41 | 234 | 2.6 | 2.6 | 0.00 | 0.00 | 0.00 | 71 | 1020.7 |
| 20260503053415 | 41 | 225 | 2.6 | 2.6 | 0.00 | 0.00 | 0.00 | 71 | 1020.9 |
| 20260503052910 | 41 | 236 | 2.6 | 4.3 | 0.00 | 0.00 | 0.00 | 70 | 1020.6 |
| 20260503052408 | 41 | 230 | 2.6 | 4.3 | 0.00 | 0.00 | 0.00 | 70 | 1020.7 |
| 20260503051904 | 41 | 227 | 3.5 | 4.3 | 0.00 | 0.00 | 0.00 | 71 | 1020.8 |
| 20260503051400 | 41 | 229 | 2.6 | 2.6 | 0.00 | 0.00 | 0.00 | 70 | 1020.9 |
| 20260503050858 | 41 | 227 | 2.6 | 4.3 | 0.00 | 0.00 | 0.00 | 70 | 1020.9 |
| 20260503050354 | 41 | 227 | 2.6 | 2.6 | 0.00 | 0.00 | 0.00 | 70 | 1021.0 |
| 20260503045851 | 41 | 230 | 2.6 | 2.6 | 0.00 | 0.00 | 0.00 | 70 | 1021.0 |
| 20260503045349 | 41 | 225 | 1.7 | 1.7 | 0.00 | 0.00 | 0.00 | 71 | 1021.1 |
| 20260503044845 | 41 | 224 | 0.9 | 1.7 | 0.00 | 0.00 | 0.00 | 72 | 1020.9 |
| 20260503044342 | 41 | 227 | 1.7 | 1.7 | 0.00 | 0.00 | 0.00 | 73 | 1021.0 |
| 20260503043839 | 41 | 220 | 0.9 | 0.9 | 0.00 | 0.00 | 0.00 | 73 | 1021.0 |
| 20260503043336 | 41 | 228 | 0.9 | 1.7 | 0.00 | 0.00 | 0.00 | 72 | 1020.9 |
| 20260503042832 | 41 | 221 | 0.9 | 1.7 | 0.00 | 0.00 | 0.00 | 73 | 1021.0 |
| 20260503042329 | 41 | 222 | 0.9 | 1.7 | 0.00 | 0.00 | 0.00 | 73 | 1021.1 |
| 20260503041825 | 41 | 220 | 0.9 | 1.7 | 0.00 | 0.00 | 0.00 | 73 | 1020.8 |
| 20260503041323 | 41 | 221 | 0.9 | 0.9 | 0.00 | 0.00 | 0.00 | 73 | 1020.9 |
| 20260503040820 | 41 | 220 | 0.9 | 1.7 | 0.00 | 0.00 | 0.00 | 73 | 1020.9 |
| 20260503040318 | 41 | 221 | 0.9 | 0.9 | 0.00 | 0.00 | 0.00 | 74 | 1020.9 |
| 20260503035815 | 41 | 223 | 0.9 | 0.9 | 0.00 | 0.00 | 0.00 | 74 | 1021.1 |
| 20260503035312 | 41 | 223 | 0.9 | 1.7 | 0.00 | 0.00 | 0.00 | 74 | 1021.2 |
| 20260503034809 | 41 | 219 | 0.9 | 1.7 | 0.00 | 0.00 | 0.00 | 75 | 1021.0 |
| 20260503034306 | 41 | 218 | 1.7 | 1.7 | 0.00 | 0.00 | 0.00 | 74 | 1021.0 |
| 20260503033803 | 41 | 223 | 1.7 | 1.7 | 0.00 | 0.00 | 0.00 | 73 | 1020.7 |
| 20260503033300 | 41 | 227 | 0.9 | 0.9 | 0.00 | 0.00 | 0.00 | 72 | 1020.9 |
| 20260503032758 | 41 | 222 | 0.9 | 0.9 | 0.00 | 0.00 | 0.00 | 72 | 1021.0 |
| 20260503032257 | 41 | 225 | 0.9 | 0.9 | 0.00 | 0.00 | 0.00 | 74 | 1021.1 |
| 20260503031754 | 40 | 340 | 0.0 | 0.9 | 0.00 | 0.00 | 0.00 | 77 | 1021.0 |
| 20260503031252 | 40 | 339 | 0.9 | 0.9 | 0.00 | 0.00 | 0.00 | 81 | 1021.0 |
| 20260503030748 | 40 | 340 | 0.9 | 0.9 | 0.00 | 0.00 | 0.00 | 81 | 1021.2 |
| 20260503030245 | 40 | 340 | 0.0 | 0.0 | 0.00 | 0.00 | 0.00 | 80 | 1021.3 |
| 20260503025741 | 41 | 340 | 0.0 | 0.0 | 0.00 | 0.00 | 0.00 | 78 | 1021.0 |
| 20260503025239 | 41 | 340 | 0.0 | 0.0 | 0.00 | 0.00 | 0.00 | 75 | 1021.2 |
| 20260503024735 | 41 | 340 | 0.9 | 0.9 | 0.00 | 0.00 | 0.00 | 78 | 1021.3 |
| 20260503024233 | 41 | 340 | 0.0 | 0.9 | 0.00 | 0.00 | 0.00 | 76 | 1021.1 |
| 20260503023729 | 41 | 340 | 0.0 | 0.0 | 0.00 | 0.00 | 0.00 | 76 | 1021.4 |
| 20260503023227 | 41 | 340 | 0.0 | 0.0 | 0.00 | 0.00 | 0.00 | 77 | 1021.1 |
| 20260503022723 | 41 | 340 | 0.0 | 0.9 | 0.00 | 0.00 | 0.00 | 82 | 1021.3 |
| 20260503022223 | 41 | 340 | 0.9 | 0.9 | 0.00 | 0.00 | 0.00 | 83 | 1021.2 |
| 20260503021720 | 41 | 340 | 0.9 | 0.9 | 0.00 | 0.00 | 0.00 | 81 | 1021.0 |
| 20260503021216 | 41 | 341 | 0.0 | 0.0 | 0.00 | 0.00 | 0.00 | 80 | 1021.2 |
| 20260503020713 | 41 | 341 | 0.0 | 0.0 | 0.00 | 0.00 | 0.00 | 78 | 1021.0 |
| 20260503020211 | 41 | 341 | 0.0 | 0.0 | 0.00 | 0.00 | 0.00 | 77 | 1021.0 |
| 20260503015708 | 42 | 341 | 0.0 | 0.0 | 0.00 | 0.00 | 0.00 | 76 | 1020.8 |
| 20260503015204 | 42 | 341 | 0.0 | 0.0 | 0.00 | 0.00 | 0.00 | 75 | 1020.7 |
| 20260503014700 | 43 | 341 | 0.0 | 0.0 | 0.00 | 0.00 | 0.00 | 73 | 1021.0 |
| 20260503014158 | 43 | 341 | 0.0 | 0.0 | 0.00 | 0.00 | 0.00 | 67 | 1021.0 |
| 20260503013655 | 44 | 340 | 0.0 | 0.9 | 0.00 | 0.00 | 0.00 | 68 | 1020.7 |
| 20260503013153 | 44 | 341 | 0.0 | 0.9 | 0.00 | 0.00 | 0.00 | 68 | 1020.8 |
| 20260503012650 | 44 | 341 | 0.0 | 0.9 | 0.00 | 0.00 | 0.00 | 67 | 1020.8 |
| 20260503012147 | 43 | 341 | 0.0 | 0.9 | 0.00 | 0.00 | 0.00 | 67 | 1020.8 |
| 20260503011643 | 44 | 341 | 0.0 | 0.0 | 0.00 | 0.00 | 0.00 | 69 | 1020.8 |
| 20260503011140 | 44 | 341 | 0.0 | 0.0 | 0.00 | 0.00 | 0.00 | 68 | 1020.6 |
| 20260503010636 | 45 | 341 | 0.0 | 0.0 | 0.00 | 0.00 | 0.00 | 63 | 1020.5 |
| 20260503010134 | 45 | 341 | 0.0 | 0.0 | 0.00 | 0.00 | 0.00 | 58 | 1020.7 |
| 20260503005631 | 46 | 341 | 0.0 | 0.0 | 0.00 | 0.00 | 0.00 | 56 | 1020.8 |
| 20260503005128 | 46 | 342 | 0.0 | 0.0 | 0.00 | 0.00 | 0.00 | 56 | 1020.8 |
| 20260503004624 | 46 | 342 | 0.0 | 0.9 | 0.00 | 0.00 | 0.00 | 56 | 1020.8 |
| 20260503004123 | 47 | 342 | 0.0 | 0.9 | 0.00 | 0.00 | 0.00 | 58 | 1020.6 |
| 20260503003619 | 47 | 341 | 0.0 | 0.9 | 0.00 | 0.00 | 0.00 | 55 | 1020.8 |
| 20260503003116 | 48 | 342 | 0.9 | 0.9 | 0.00 | 0.00 | 0.00 | 54 | 1020.7 |
| 20260503002613 | 48 | 342 | 0.0 | 0.9 | 0.00 | 0.00 | 0.00 | 53 | 1020.8 |
| 20260503002110 | 48 | 339 | 0.9 | 0.9 | 0.00 | 0.00 | 0.00 | 50 | 1020.7 |
| 20260503001606 | 48 | 353 | 0.9 | 1.7 | 0.00 | 0.00 | 0.00 | 51 | 1020.7 |
| 20260503001103 | 49 | 304 | 0.9 | 0.9 | 0.00 | 0.00 | 0.00 | 53 | 1020.8 |
| 20260503000601 | 49 | 307 | 0.9 | 0.9 | 0.00 | 0.00 | 0.00 | 50 | 1020.6 |
| 20260503000058 | 49 | 334 | 1.7 | 4.3 | 0.00 | 0.00 | 0.00 | 48 | 1020.7 |
| 20260502235554 | 49 | 330 | 0.9 | 1.7 | 0.00 | 0.00 | 0.00 | 48 | 1020.7 |
| 20260502235052 | 49 | 310 | 2.6 | 4.3 | 0.00 | 0.00 | 0.00 | 46 | 1020.5 |
| 20260502234548 | 50 | 331 | 1.7 | 4.3 | 0.00 | 0.00 | 0.00 | 47 | 1020.5 |
| 20260502234046 | 50 | 336 | 1.7 | 5.2 | 0.00 | 0.00 | 0.00 | 45 | 1020.6 |
| 20260502233546 | 50 | 342 | 2.6 | 5.2 | 0.00 | 0.00 | 0.00 | 44 | 1020.4 |
| 20260502233043 | 50 | 329 | 2.6 | 4.3 | 0.00 | 0.00 | 0.00 | 45 | 1020.4 |
| 20260502232539 | 50 | 333 | 3.5 | 4.3 | 0.00 | 0.00 | 0.00 | 48 | 1020.5 |
| 20260502232037 | 50 | 283 | 1.7 | 4.3 | 0.00 | 0.00 | 0.00 | 45 | 1020.5 |
| 20260502231533 | 50 | 335 | 3.5 | 6.1 | 0.00 | 0.00 | 0.00 | 43 | 1020.6 |
| 20260502231031 | 50 | 342 | 2.6 | 4.3 | 0.00 | 0.00 | 0.00 | 43 | 1020.6 |
| 20260502230530 | 50 | 305 | 2.6 | 4.3 | 0.00 | 0.00 | 0.00 | 45 | 1020.6 |
| 20260502230028 | 50 | 332 | 1.7 | 4.3 | 0.00 | 0.00 | 0.00 | 43 | 1020.5 |
| 20260502225523 | 50 | 22 | 1.7 | 7.0 | 0.00 | 0.00 | 0.00 | 44 | 1020.7 |
| 20260502225020 | 50 | 352 | 2.6 | 5.2 | 0.00 | 0.00 | 0.00 | 43 | 1020.9 |
| 20260502224516 | 50 | 14 | 3.5 | 6.1 | 0.00 | 0.00 | 0.00 | 44 | 1020.6 |
| 20260502224014 | 51 | 317 | 3.5 | 5.2 | 0.00 | 0.00 | 0.00 | 46 | 1020.6 |
| 20260502223511 | 50 | 314 | 1.7 | 2.6 | 0.00 | 0.00 | 0.00 | 47 | 1020.5 |
| 20260502223009 | 50 | 284 | 2.6 | 2.6 | 0.00 | 0.00 | 0.00 | 46 | 1020.4 |
| 20260502222506 | 51 | 331 | 4.3 | 6.1 | 0.00 | 0.00 | 0.00 | 47 | 1020.6 |
| 20260502222003 | 51 | 315 | 2.6 | 4.3 | 0.00 | 0.00 | 0.00 | 42 | 1020.7 |
| 20260502221458 | 51 | 350 | 2.6 | 4.3 | 0.00 | 0.00 | 0.00 | 42 | 1020.5 |
| 20260502220956 | 51 | 2 | 1.7 | 4.3 | 0.00 | 0.00 | 0.00 | 43 | 1020.7 |
| 20260502220451 | 50 | 305 | 1.7 | 2.6 | 0.00 | 0.00 | 0.00 | 47 | 1020.8 |
| 20260502215948 | 50 | 337 | 1.7 | 5.2 | 0.00 | 0.00 | 0.00 | 46 | 1020.8 |
| 20260502215446 | 50 | 329 | 3.5 | 6.1 | 0.00 | 0.00 | 0.00 | 44 | 1020.6 |
| 20260502214942 | 50 | 7 | 2.6 | 7.0 | 0.00 | 0.00 | 0.00 | 43 | 1020.7 |
| 20260502214439 | 51 | 329 | 3.5 | 7.8 | 0.00 | 0.00 | 0.00 | 44 | 1020.8 |
| 20260502213936 | 50 | 354 | 2.6 | 6.1 | 0.00 | 0.00 | 0.00 | 45 | 1020.7 |
| 20260502213433 | 49 | 288 | 0.9 | 2.6 | 0.00 | 0.00 | 0.00 | 48 | 1020.5 |
| 20260502212932 | 49 | 331 | 1.7 | 4.3 | 0.00 | 0.00 | 0.00 | 46 | 1020.6 |
| 20260502212430 | 49 | 319 | 0.9 | 5.2 | 0.00 | 0.00 | 0.00 | 46 | 1020.6 |
| 20260502211927 | 50 | 349 | 3.5 | 5.2 | 0.00 | 0.00 | 0.00 | 45 | 1020.5 |
| 20260502211423 | 50 | 326 | 1.7 | 6.1 | 0.00 | 0.00 | 0.00 | 46 | 1020.4 |
| 20260502210920 | 50 | 329 | 2.6 | 6.1 | 0.00 | 0.00 | 0.00 | 44 | 1020.6 |
| 20260502210417 | 49 | 339 | 2.6 | 5.2 | 0.00 | 0.00 | 0.00 | 47 | 1020.6 |
| 20260502205914 | 50 | 303 | 1.7 | 4.3 | 0.00 | 0.00 | 0.00 | 47 | 1020.6 |
| 20260502205410 | 51 | 298 | 1.7 | 2.6 | 0.00 | 0.00 | 0.00 | 48 | 1020.8 |
| 20260502204908 | 51 | 4 | 3.5 | 7.0 | 0.00 | 0.00 | 0.00 | 47 | 1020.7 |
| 20260502204404 | 51 | 321 | 2.6 | 5.2 | 0.00 | 0.00 | 0.00 | 47 | 1020.6 |
| 20260502203902 | 51 | 292 | 0.9 | 5.2 | 0.00 | 0.00 | 0.00 | 46 | 1020.8 |